Location: Newark
(44.9861°N, 0.2536°E)
Time: 19:38:55
(UTC+00:00)

HuskySat-1 - Pass Details

Date: 13 July 2020
Orbit: 457 x 471 km, 51.6° (Epoch: 11 August)

Event Time Altitude Azimuth Distance (km) Brightness Sun altitude
Rises 03:26:40 0° 296° (WNW) 2,489 ? -9.0°
Reaches altitude 10° 03:28:58 10° 307° (NW) 1,610 ? -8.7°
Maximum altitude 03:32:17 33° 13° (NNE) 797 ? -8.2°
Drops below altitude 10° 03:35:36 10° 79° (E) 1,601 ? -7.8°
Sets 03:37:52 0° 89° (E) 2,472 ? -7.5°
